Location: Ústí nad Labem
(50.6611°N, 14.0531°E)
Time: 09:34:14
(UTC+01:00)

Tiangong - Visible Passes

Search period start: 27 February 2024 00:00
Search period end: 08 March 2024 00:00
Orbit: 375 x 385 km, 41.5° (Epoch: 26 February)

Date Brightness Start Highest point End Pass type
(mag) Time Alt. Az. Time Alt. Az. Time Alt. Az.
02 Mar 0.1 19:25:02 10° SSW 19:26:47 14° S 19:26:47 14° S visible
03 Mar 0.3 18:24:21 10° S 18:25:39 12° SSE 18:26:58 10° SE visible
03 Mar 0.5 19:59:42 10° SW 20:00:28 13° SSW 20:00:28 13° SSW visible
04 Mar 0.1 18:58:26 10° SW 19:00:22 15° S 19:01:57 11° SE visible
05 Mar 0.2 19:33:14 10° SW 19:35:02 14° S 19:35:26 14° S visible
06 Mar 0.2 18:31:40 10° SW 18:33:37 15° S 18:35:34 10° SE visible
07 Mar 0.5 19:06:42 10° SW 19:08:05 12° SSW 19:09:29 10° SSE visible
